Theta_e
354 351 346 348 350 347 345 346 346 345 345 343 340 338 335 328 324 329 326 326 328 326 329 333 332 326 324 323 324 325 325 325 324 324 324 324 324 324 324 324 333 333 326
355 351 348 348 350 348 343 344 345 346 345 344 341 339 336 329 326 325 325 333 330 328 329 332 329 322 323 324 325 325 324 325 325 326 326 325 325 324 324 324 325 325 325
355 354 347 348 348 347 344 340 344 345 345 344 342 341 337 328 328 325 326 336 334 334 333 331 323 322 324 325 327 330 331 331 330 330 337 340 332 328 328 326 325 325 324
357 353 348 347 344 346 342 339 344 345 345 344 342 340 334 328 327 325 328 336 335 333 328 323 322 324 325 325 328 331 332 332 331 331 339 340 337 329 329 329 328 328 327
357 348 344 343 345 345 336 341 344 345 344 342 340 338 331 327 327 326 326 333 329 323 321 323 324 325 325 328 332 332 332 332 330 341 339 339 339 329 328 329 329 329 330
355 353 338 344 345 338 335 340 343 343 341 339 338 334 329 325 327 326 323 323 322 321 323 324 325 327 330 333 334 333 331 331 332 342 342 337 341 329 328 329 329 329 329
353 353 343 344 339 333 334 339 341 341 338 336 333 331 326 325 326 326 322 322 322 323 324 324 326 332 335 335 334 333 333 333 338 339 339 341 342 330 329 328 328 329 329
352 353 344 342 335 331 332 335 337 335 334 332 331 329 324 325 326 326 322 323 323 324 325 324 325 332 335 335 335 334 335 335 336 338 336 342 337 332 331 330 330 329 329
352 352 348 341 335 332 332 334 334 334 333 331 330 328 323 325 327 327 323 323 323 324 325 325 325 326 329 333 335 336 336 335 334 337 334 334 334 333 333 332 331 330 330
351 351 351 349 337 333 332 333 334 333 332 330 327 325 323 324 327 329 325 324 323 322 324 325 325 324 325 325 327 332 335 334 334 335 335 333 331 333 334 334 333 332 331
350 351 351 351 347 344 343 332 333 333 332 330 326 324 324 325 325 326 325 324 323 322 321 323 325 325 324 324 324 324 324 328 333 331 329 329 331 332 334 335 335 335 332
350 351 351 353 350 346 344 342 333 332 333 333 331 325 324 330 332 337 332 325 324 323 321 320 322 324 325 329 333 325 324 333 332 329 327 325 327 330 332 336 336 336 336
352 351 349 350 351 348 345 345 341 341 338 335 336 333 328 338 340 334 339 324 325 325 323 322 320 321 324 332 334 336 333 331 330 327 326 323 324 330 331 335 337 338 337
353 352 344 341 344 346 346 345 344 345 345 345 343 337 339 337 341 341 339 339 328 336 327 332 333 325 328 328 329 333 332 330 328 326 325 323 326 326 330 334 337 339 339
347 351 347 344 343 343 344 346 346 345 345 346 346 346 344 345 344 340 339 338 337 337 336 336 335 334 330 322 322 324 329 328 326 323 324 320 324 329 331 333 337 340 340
342 348 350 347 347 344 346 344 342 343 345 347 346 346 343 345 346 346 345 345 344 341 339 338 337 337 336 334 332 329 322 321 323 322 322 322 320 319 323 332 336 339 341
332 332 334 349 345 334 345 346 348 347 341 337 342 339 344 340 341 341 347 347 347 347 347 344 344 342 337 338 337 335 334 332 325 323 323 325 325 323 320 324 330 335 338
327 330 335 334 341 327 337 348 351 350 347 346 342 338 336 336 337 338 342 346 345 346 346 346 346 346 346 345 345 345 344 343 341 339 336 332 329 326 325 322 320 322 326
330 329 327 325 327 325 334 346 348 351 349 348 348 343 340 338 332 330 332 343 343 342 343 344 345 345 344 345 344 344 344 343 343 342 341 337 335 332 328 325 321 320 323
330 326 323 324 326 326 324 343 341 350 348 350 348 345 344 342 337 330 333 341 341 338 344 345 343 346 345 345 343 341 341 342 343 343 343 341 339 337 337 331 326 329 328
331 328 325 324 327 326 324 321 341 344 348 348 348 345 342 345 345 342 340 342 339 336 336 336 337 342 346 343 340 337 338 337 340 338 337 341 341 339 339 338 335 333 331
330 324 324 322 325 325 324 320 321 342 346 346 348 348 344 342 344 344 341 343 340 339 335 341 341 341 340 339 336 334 331 331 334 339 342 340 340 340 339 339 338 335 335
333 326 324 322 322 324 325 328 331 336 339 340 346 345 345 344 343 343 343 344 341 341 342 343 342 337 337 336 334 329 329 327 330 334 337 337 338 336 332 333 332 332 332
325 324 324 326 329 332 335 340 343 344 345 345 345 343 342 340 343 344 344 342 340 340 341 340 340 338 335 337 337 333 328 330 330 331 333 333 334 332 331 329 330 334 336
323 325 325 326 326 328 332 334 335 331 330 329 327 327 325 325 324 331 337 338 336 331 331 332 336 337 337 337 338 337 333 336 334 337 335 335 336 334 334 337 336 334 333
319 319 319 319 320 320 321 321 321 321 321 320 320 319 321 322 323 320 319 320 330 336 338 338 338 337 336 338 337 336 337 336 333 334 336 336 336 336 334 329 330 331 330
Wind_Speed
14 25 26 22 22 22 22 20 20 20 20 18 16 15 13 11 12 13 14 16 16 16 17 15 12 11 12 13 13 13 13 14 14 15 15 14 14 13 12 11 13 7 9
17 24 26 21 21 20 20 20 21 21 20 18 16 13 11 10 12 14 16 15 16 16 16 13 12 12 13 14 14 13 13 13 14 14 15 14 13 12 12 11 11 8 9
19 23 24 21 19 19 18 18 22 23 21 18 15 11 10 10 13 14 16 15 15 14 13 12 12 13 14 14 14 12 12 12 13 13 15 9 8 12 11 11 10 9 9
20 22 22 21 19 18 18 18 24 23 21 17 14 11 10 11 13 15 16 15 14 12 12 12 13 13 14 13 12 11 11 11 12 12 11 8 6 10 10 9 9 8 7
19 22 22 21 20 19 18 21 24 23 20 16 13 12 11 12 14 15 15 14 12 12 12 13 13 13 14 12 11 11 10 10 10 12 6 6 6 6 9 8 7 7 7
18 19 22 22 21 20 19 21 23 21 19 16 14 13 12 13 15 15 14 13 12 12 12 12 13 13 13 13 11 10 9 9 8 4 4 4 6 4 6 7 6 5 5
17 17 23 23 21 21 21 21 20 19 18 16 15 14 12 14 16 16 14 13 13 13 12 12 13 13 13 12 10 9 8 6 5 2 1 3 4 4 5 5 4 4 4
17 16 23 23 22 21 21 20 19 18 16 15 14 13 13 15 16 16 15 14 13 13 13 13 13 13 12 11 9 8 6 5 2 3 2 2 5 2 3 3 2 2 2
17 17 19 23 23 21 20 19 18 17 16 14 13 12 13 15 16 16 15 14 13 13 13 13 13 13 12 11 10 9 7 6 4 5 4 3 5 3 2 1 1 1 1
17 16 16 18 23 22 21 20 18 17 16 13 12 12 13 16 17 16 16 15 14 14 14 14 13 13 12 11 11 11 10 9 8 8 8 7 6 5 4 5 4 4 5
16 16 16 17 18 18 17 21 19 18 17 14 13 13 13 15 17 18 17 17 15 14 14 15 14 14 13 13 12 13 13 10 9 9 9 12 10 9 7 7 7 8 8
16 16 16 17 18 18 17 18 21 21 20 18 16 15 16 16 17 16 17 17 16 15 15 15 16 16 16 14 12 15 16 13 12 10 10 15 13 13 11 11 10 11 11
14 15 16 18 18 19 18 18 20 20 21 21 19 17 17 16 15 18 15 19 18 17 16 17 18 19 19 15 13 15 12 13 12 12 12 16 15 15 15 14 14 14 14
13 13 13 15 20 22 18 18 18 18 18 18 19 20 18 17 16 16 16 15 19 16 17 16 14 18 18 19 18 16 16 15 14 13 13 18 16 18 19 18 17 16 17
8 8 9 12 14 21 26 20 18 17 17 16 16 18 18 17 16 16 16 15 16 15 16 16 15 16 17 22 22 20 17 17 19 20 18 23 18 19 20 21 20 17 17
6 5 7 4 10 16 20 25 26 23 18 17 16 16 21 18 17 15 16 15 15 15 15 15 15 15 16 16 17 20 23 23 22 24 23 22 25 23 23 24 23 21 19
5 4 6 6 5 7 15 20 19 20 24 27 22 26 23 24 24 22 17 16 16 16 17 18 17 16 18 16 17 17 17 20 23 24 26 23 22 24 25 25 26 26 24
20 13 8 8 6 10 13 14 18 20 22 20 25 28 29 17 16 24 23 20 18 17 18 17 17 17 17 16 16 16 17 17 18 20 23 23 21 21 23 27 28 26 27
22 22 20 19 17 12 15 15 17 21 21 21 20 23 26 21 19 19 25 24 24 23 20 19 19 20 19 18 19 16 15 19 20 20 21 26 28 29 26 25 31 28 27
18 18 17 25 28 25 15 16 19 24 24 21 23 28 23 25 27 17 25 28 25 24 21 20 20 21 20 18 18 15 15 15 17 20 22 23 24 25 24 27 28 26 26
10 16 11 12 21 21 20 28 22 23 24 21 21 25 28 28 24 27 34 36 28 30 21 21 19 24 20 20 20 19 15 20 15 17 17 15 16 18 20 22 24 23 23
11 20 17 12 14 16 24 27 33 16 15 18 17 17 25 29 23 26 31 31 25 26 26 25 27 25 24 22 28 20 17 23 23 15 12 11 11 11 12 14 20 23 24
7 15 21 21 21 21 21 19 18 16 15 14 12 15 16 18 23 28 31 28 24 24 25 24 25 24 25 30 34 24 18 25 27 23 24 20 21 18 17 20 17 18 23
9 10 12 13 13 15 15 13 12 10 9 11 7 8 10 11 12 16 16 15 15 19 22 24 25 28 26 29 22 30 29 22 21 30 37 32 31 34 36 34 32 20 18
12 12 12 10 10 9 9 7 9 7 6 6 5 8 10 12 13 11 12 13 15 20 22 24 23 26 25 28 23 22 28 25 27 25 30 29 29 33 25 22 23 27 27
13 12 10 9 8 6 5 5 5 6 7 9 11 12 10 12 12 17 20 20 19 20 22 24 26 26 27 26 25 25 25 23 30 34 29 32 28 29 34 32 36 37 38
Wind_Direction
161 173 173 171 170 169 172 176 179 178 173 166 161 152 146 146 152 151 152 152 153 157 161 157 150 140 136 131 126 124 118 117 118 109 105 100 94 92 91 89 83 86 75
170 176 174 175 175 176 177 180 183 182 178 171 164 155 149 150 158 157 156 154 152 154 157 157 152 144 139 135 131 128 123 121 114 111 105 97 95 93 90 90 98 86 76
170 174 181 181 182 180 178 181 186 182 180 175 169 162 158 160 165 161 159 155 157 159 157 156 154 147 143 139 136 130 127 121 114 108 97 90 95 92 90 88 86 84 82
170 174 183 183 188 181 180 179 183 181 180 179 176 171 170 170 171 166 165 165 164 164 164 160 154 150 147 145 141 139 130 125 119 110 81 120 103 93 91 86 81 76 76
166 175 187 184 186 180 176 179 178 179 181 184 187 183 180 179 177 173 171 174 171 169 164 158 154 154 155 156 153 151 143 135 126 100 126 121 125 92 94 87 82 72 61
165 169 183 183 184 180 175 174 178 181 185 190 196 193 190 187 182 179 177 175 173 171 164 160 157 157 158 160 158 152 145 137 134 103 144 135 125 131 103 95 81 72 65
165 171 179 182 184 182 179 180 183 188 192 195 199 201 201 193 187 184 181 179 178 175 171 167 165 163 162 163 163 161 154 144 107 237 154 168 168 119 111 107 99 79 60
168 172 182 181 187 186 186 186 189 193 197 199 201 208 208 198 192 189 187 185 185 185 183 179 177 177 179 181 181 183 179 169 155 234 224 188 205 167 137 122 107 74 45
172 169 179 184 187 191 192 192 193 196 199 203 209 215 210 203 199 196 195 194 195 197 198 195 193 193 197 202 208 212 214 212 210 257 248 253 244 227 240 212 205 254 289
174 175 178 181 189 191 195 197 199 198 199 203 213 217 213 206 205 206 206 205 205 208 210 211 211 209 211 216 224 232 239 244 254 261 266 254 245 244 253 267 270 267 272
175 180 181 186 186 185 195 199 200 202 202 205 206 208 210 212 210 212 214 215 214 216 222 225 225 226 226 230 237 244 251 256 259 267 264 258 254 261 264 271 278 281 280
179 184 186 189 190 188 194 201 202 206 208 210 210 208 206 205 211 207 218 222 222 225 227 232 234 238 241 241 256 257 255 256 260 265 265 267 261 262 268 276 280 283 282
190 193 188 201 192 194 197 202 202 207 209 215 215 214 205 204 210 214 216 224 230 232 235 237 236 238 241 243 249 247 252 262 270 268 269 267 266 263 267 271 279 282 280
200 206 214 215 209 206 204 211 212 212 212 211 215 217 211 212 214 213 222 228 231 227 238 234 240 237 242 242 246 254 260 261 266 268 269 271 266 267 265 267 273 282 273
178 201 216 222 226 224 217 212 213 220 225 220 221 223 216 217 218 221 222 226 235 232 236 234 239 245 254 258 257 257 261 264 266 271 271 273 267 270 270 269 271 278 272
144 182 206 226 255 234 227 234 229 221 215 226 224 222 232 226 225 224 231 235 237 241 237 241 245 246 256 258 264 267 270 272 276 276 278 278 277 271 272 272 271 273 273
181 248 288 219 246 302 256 237 237 235 243 243 233 240 236 236 237 242 237 238 240 245 246 243 245 252 256 259 266 271 274 281 282 285 287 285 283 285 276 272 272 270 271
243 240 240 249 242 305 287 249 241 240 237 233 246 244 242 246 260 268 254 248 248 247 250 253 253 252 255 259 266 272 277 279 280 281 285 283 278 277 279 283 275 272 272
236 223 242 255 260 280 297 268 254 246 243 240 239 247 247 239 248 273 284 256 260 266 261 254 249 249 247 250 252 256 263 274 281 280 275 281 284 284 279 278 281 279 276
229 247 244 251 236 250 289 290 278 255 254 244 243 250 246 245 226 262 273 270 258 266 254 246 244 243 243 241 243 249 266 276 278 275 278 283 278 276 275 280 279 278 279
223 218 219 249 234 223 225 281 282 270 253 255 249 245 253 257 254 236 242 254 252 266 266 257 255 252 236 236 258 269 261 275 299 298 290 279 275 274 271 270 271 273 268
204 203 207 212 214 225 213 240 257 259 259 258 256 258 255 251 247 247 250 240 251 260 256 250 247 243 246 243 254 267 267 269 268 279 256 268 271 283 285 280 270 267 266
155 205 213 219 226 233 238 244 242 242 252 259 261 256 253 253 259 260 256 238 256 250 251 253 250 241 250 258 257 246 268 254 261 254 250 262 261 274 287 289 304 275 275
135 186 214 220 216 215 208 208 206 214 224 217 231 230 230 240 253 262 255 252 258 255 254 260 255 250 260 250 250 263 258 259 257 260 262 264 259 269 279 279 279 278 276
121 129 138 144 151 153 167 181 185 183 202 221 235 253 255 260 258 262 275 272 261 253 252 256 255 260 248 249 247 254 267 256 253 253 267 270 268 268 264 266 259 262 270
96 97 111 118 130 140 165 197 219 240 250 253 261 270 271 269 275 269 262 256 248 248 252 252 254 250 249 251 251 250 243 244 249 248 250 263 262 262 257 263 266 262 268